Location: Espelette
(43.3402°N, 1.4474°W)
Time: 17:42:23
(UTC+00:00)

Cosmos 1842 Rocket - Pass Details

Date: 19 May 2025
Orbit: 600 x 626 km, 82.5° (Epoch: 12 June)

Event Time Altitude Azimuth Distance (km) Brightness Sun altitude
Exits shadow 23:02:50 72° 324° (NW) 636 3.6 -25.2°
Drops below altitude 10° 23:06:50 10° 5° (N) 1,952 7.0 -25.4°
Sets 23:09:04 0° 7° (N) 2,860 8.1 -25.5°
